Location: Innsbruck
(47.2657°N, 11.3914°E)
Time: 11:01:38
(UTC+01:00)

BEESAT 3 - Pass Details

Date: 07 December 2021
Orbit: 472 x 512 km, 64.9° (Epoch: 22 January)

Event Time Altitude Azimuth Distance (km) Brightness Sun altitude
Rises 18:21:44 0° 197° (SSW) 2,541 ? -19.0°
Reaches altitude 10° 18:23:56 10° 189° (S) 1,673 ? -19.4°
Enters shadow 18:26:47 36° 146° (SE) 802 ? -19.9°
